Weather History for Zanesville, OH

Change the Weather History Date:

Monday, December 3, 2012

  Actual Average Record
Temperature  
Mean Temperature 58 °F 36 °F  
Max Temperature 63 °F 45 °F 76 °F (1982)
Min Temperature 53 °F 28 °F -6 °F (1966)
Degree Days  
Heating Degree Days 7 29  
Month to date heating degree days 40 85  
Since 1 July heating degree days 1313 1226  
Cooling Degree Days 0 0  
Month to date cooling degree days 0 0  
Year to date cooling degree days 980 768  
Growing Degree Days 8 (Base 50)    
Moisture  
Dew Point 55 °F    
Average Humidity 89    
Maximum Humidity 100    
Minimum Humidity 78    
Precipitation  
Precipitation 0.06 in 0.09 in 1.27 in (1990)
Month to date precipitation 0.38 0.26  
Year to date precipitation 31.11 35.54  
Sea Level Pressure  
Sea Level Pressure 30.16 in    
Wind  
Wind Speed 5 mph (South)    
Max Wind Speed 13 mph    
Max Gust Speed 16 mph    
Visibility 6 miles    
Events Fog , Rain    
T = Trace of Precipitation, MM = Missing Value Source: NWS Daily Summary

Daily Weather History Graph

Daily Weather History Graph

Search for Another Location

Airport:

Trip Planner

Search our weather history database for the weather conditions in past years. The results will help you decide how hot, cold, wet, or windy it might be!

Date:

Astronomy

Dec. 03, 2012 Rise Set
Actual Time 7:32 AM EST 5:02 PM EST
Civil Twilight 7:02 AM EST 5:32 PM EST
Nautical Twilight 6:28 AM EST 6:06 PM EST
Astronomical Twilight 5:56 AM EST 6:39 PM EST
Moon 9:48 PM EST (12/3) 10:55 AM EST (12/3)
Length of Visible Light 10h 30m
Length of Day
9h 30m
Waning Gibbous, 78% of the Moon is Illuminated
Dec 3
Waning Gibbous
Dec 6
Last Quarter
Dec 13
New
Dec 20
First Quarter
Dec 28
Full

Hourly Weather History & Observations

Time (EST) Temp. Dew Point Humidity Pressure Visibility Wind Dir Wind Speed Gust Speed Precip Events Conditions
12:22 AM 55.4 °F 55.4 °F 100% 30.15 in 2.5 mi SSW 3.5 mph - N/A   Overcast
12:53 AM 55.0 °F 55.0 °F 100% 30.16 in 2.5 mi SSW 4.6 mph - N/A   Overcast
1:24 AM 55.4 °F 53.6 °F 94% 30.16 in 3.0 mi SW 3.5 mph - N/A   Overcast
1:32 AM 55.4 °F 55.4 °F 100% 30.16 in 2.0 mi Calm Calm - N/A   Overcast
1:39 AM 55.4 °F 55.4 °F 100% 30.16 in 1.8 mi Calm Calm - 0.00 in Rain Light Rain
1:46 AM 55.4 °F 55.4 °F 100% 30.16 in 2.0 mi Calm Calm - 0.01 in Rain Light Rain
1:53 AM 55.9 °F 55.0 °F 97% 30.16 in 1.8 mi Calm Calm - 0.01 in Rain Light Rain
2:03 AM 55.4 °F 55.4 °F 100% 30.16 in 0.8 mi Calm Calm - 0.00 in   Overcast
2:53 AM 55.0 °F 55.0 °F 100% 30.17 in 0.2 mi Calm Calm - 0.00 in Fog Fog
3:53 AM 54.0 °F 54.0 °F 100% 30.17 in 0.5 mi SSE 4.6 mph - 0.01 in Fog Fog
4:03 AM 53.6 °F 53.6 °F 100% 30.16 in 0.5 mi SSE 4.6 mph - N/A Fog Fog
4:12 AM 55.4 °F 53.6 °F 94% 30.16 in 0.5 mi SSE 3.5 mph - N/A Fog Fog
4:53 AM 55.0 °F 55.0 °F 100% 30.16 in 0.5 mi SSE 3.5 mph - N/A Fog Fog
5:27 AM 55.4 °F 55.4 °F 100% 30.16 in 1.2 mi South 3.5 mph - 0.01 in   Overcast
5:35 AM 55.4 °F 55.4 °F 100% 30.16 in 1.8 mi SSE 4.6 mph - 0.01 in   Overcast
5:42 AM 55.4 °F 55.4 °F 100% 30.16 in 2.5 mi South 4.6 mph - 0.01 in   Overcast
5:53 AM 55.9 °F 55.0 °F 97% 30.17 in 2.5 mi South 4.6 mph - 0.01 in   Overcast
6:02 AM 55.4 °F 55.4 °F 100% 30.17 in 3.0 mi South 4.6 mph - 0.00 in Rain Light Rain
6:20 AM 55.4 °F 55.4 °F 100% 30.17 in 4.0 mi Calm Calm - 0.00 in   Overcast
6:53 AM 55.9 °F 55.0 °F 97% 30.18 in 5.0 mi South 3.5 mph - 0.00 in   Overcast
7:11 AM 55.4 °F 55.4 °F 100% 30.19 in 5.0 mi South 4.6 mph - N/A   Overcast
7:19 AM 55.4 °F 55.4 °F 100% 30.19 in 6.0 mi South 4.6 mph - N/A   Overcast
7:31 AM 55.4 °F 53.6 °F 94% 30.19 in 6.0 mi South 4.6 mph - N/A   Overcast
8:53 AM 55.9 °F 55.0 °F 97% 30.20 in 6.0 mi SSE 3.5 mph - 0.00 in   Overcast
10:39 AM 59.0 °F 55.4 °F 88% 30.19 in 10.0 mi South 6.9 mph - N/A   Mostly Cloudy
10:53 AM 59.0 °F 55.9 °F 90% 30.19 in 10.0 mi South 9.2 mph - N/A   Mostly Cloudy
11:12 AM 60.8 °F 55.4 °F 82% 30.18 in 10.0 mi South 6.9 mph - N/A   Overcast
11:50 AM 60.8 °F 55.4 °F 82% 30.18 in 10.0 mi SSW 8.1 mph - N/A   Overcast
11:53 AM 61.0 °F 57.0 °F 87% 30.17 in 10.0 mi South 9.2 mph - N/A   Overcast
12:14 PM 60.8 °F 55.4 °F 82% 30.16 in 10.0 mi SSW 8.1 mph - N/A   Mostly Cloudy
12:22 PM 62.6 °F 57.2 °F 82% 30.15 in 10.0 mi SSW 10.4 mph - N/A   Mostly Cloudy
12:51 PM 60.8 °F 55.4 °F 82% 30.15 in 10.0 mi SSW 8.1 mph - N/A   Mostly Cloudy
12:53 PM 61.0 °F 55.9 °F 83% 30.14 in 10.0 mi SSW 6.9 mph - N/A   Mostly Cloudy
2:17 PM 62.6 °F 55.4 °F 77% 30.14 in 10.0 mi SW 10.4 mph - N/A   Overcast
2:53 PM 62.1 °F 55.9 °F 80% 30.13 in 10.0 mi South 9.2 mph - N/A   Overcast
3:30 PM 60.8 °F 57.2 °F 88% 30.13 in 2.5 mi South 5.8 mph - 0.02 in Rain Light Rain
3:35 PM 60.8 °F 57.2 °F 88% 30.13 in 6.0 mi South 5.8 mph - 0.02 in Rain Light Rain
3:42 PM 60.8 °F 57.2 °F 88% 30.13 in 10.0 mi South 5.8 mph - 0.02 in   Overcast
3:53 PM 60.1 °F 57.9 °F 93% 30.13 in 10.0 mi South 5.8 mph - 0.02 in   Overcast
4:53 PM 57.0 °F 55.0 °F 93% 30.14 in 10.0 mi SSE 4.6 mph - N/A   Clear
5:53 PM 55.9 °F 55.0 °F 97% 30.14 in 10.0 mi SSE 4.6 mph - N/A   Clear
6:53 PM 55.0 °F 54.0 °F 96% 30.14 in 10.0 mi SSE 4.6 mph - N/A   Clear
7:53 PM 55.0 °F 53.1 °F 93% 30.14 in 9.0 mi SE 4.6 mph - N/A   Clear
8:53 PM 54.0 °F 53.1 °F 97% 30.14 in 10.0 mi SSE 4.6 mph - N/A   Clear
9:53 PM 55.0 °F 52.0 °F 89% 30.12 in 10.0 mi SE 4.6 mph - 0.01 in   Clear
10:53 PM 55.0 °F 52.0 °F 89% 30.12 in 10.0 mi South 5.8 mph - N/A   Clear
11:53 PM 54.0 °F 51.1 °F 90% 30.12 in 10.0 mi South 4.6 mph - N/A   Clear